Time,TemperatureF,DewpointF,PressureIn,WindDirection,WindDirectionDegrees,WindSpeedMPH,WindSpeedGustMPH,Humidity,HourlyPrecipIn,Conditions,Clouds,dailyrainin,SoftwareType,DateUTC
2013-09-11 00:02:00,56.0,-99.9,-100.00,North,-999,-999.0,-999.0,-999,0.00,,,0.03,,2013-09-11 06:02:00,
2013-09-11 00:12:00,56.0,-99.9,-100.00,North,-999,-999.0,-999.0,-999,0.00,,,0.03,,2013-09-11 06:12:00,
2013-09-11 00:52:00,57.0,-99.9,-100.00,North,-999,-999.0,-999.0,-999,0.00,,,0.03,,2013-09-11 06:52:00,
2013-09-11 01:02:00,57.0,-99.9,-100.00,North,-999,-999.0,-999.0,-999,0.00,,,0.03,,2013-09-11 07:02:00,
2013-09-11 01:12:00,57.0,-99.9,-100.00,North,-999,-999.0,-999.0,-999,0.00,,,0.03,,2013-09-11 07:12:00,
2013-09-11 01:53:00,58.0,-99.9,-100.00,North,-999,-999.0,-999.0,-999,0.00,,,0.03,,2013-09-11 07:53:00,
2013-09-11 02:03:00,58.0,-99.9,-100.00,North,-999,-999.0,-999.0,-999,0.00,,,0.03,,2013-09-11 08:03:00,
2013-09-11 02:12:00,58.0,-99.9,-100.00,North,-999,-999.0,-999.0,-999,0.00,,,0.03,,2013-09-11 08:12:00,
2013-09-11 03:53:00,57.0,-99.9,-100.00,North,-999,-999.0,-999.0,-999,0.00,,,0.03,,2013-09-11 09:53:00,
2013-09-11 04:03:00,57.0,-99.9,-100.00,North,-999,-999.0,-999.0,-999,0.00,,,0.03,,2013-09-11 10:03:00,
2013-09-11 04:13:00,57.0,-99.9,-100.00,North,-999,-999.0,-999.0,-999,0.00,,,0.03,,2013-09-11 10:13:00,
2013-09-11 04:53:00,55.0,-99.9,-100.00,North,-999,-999.0,-999.0,-999,0.00,,,0.03,,2013-09-11 10:53:00,
2013-09-11 05:03:00,55.0,-99.9,-100.00,North,-999,-999.0,-999.0,-999,0.00,,,0.03,,2013-09-11 11:03:00,
2013-09-11 05:12:00,55.0,-99.9,-100.00,North,-999,-999.0,-999.0,-999,0.00,,,0.03,,2013-09-11 11:12:00,
2013-09-11 06:52:00,56.0,-99.9,-100.00,North,-999,-999.0,-999.0,-999,0.00,,,0.04,,2013-09-11 12:52:00,
2013-09-11 07:02:00,56.0,-99.9,-100.00,North,-999,-999.0,-999.0,-999,0.00,,,0.04,,2013-09-11 13:02:00,
2013-09-11 07:12:00,56.0,-99.9,-100.00,North,-999,-999.0,-999.0,-999,0.00,,,0.04,,2013-09-11 13:12:00,
2013-09-11 07:53:00,56.0,-99.9,-100.00,North,-999,-999.0,-999.0,-999,0.02,,,0.06,,2013-09-11 13:53:00,
2013-09-11 08:02:00,56.0,-99.9,-100.00,North,-999,-999.0,-999.0,-999,0.02,,,0.06,,2013-09-11 14:02:00,
2013-09-11 08:11:00,56.0,-99.9,-100.00,North,-999,-999.0,-999.0,-999,0.02,,,0.06,,2013-09-11 14:11:00,
2013-09-11 08:52:00,56.0,-99.9,-100.00,North,-999,-999.0,-999.0,-999,0.01,,,0.05,,2013-09-11 14:52:00,
2013-09-11 09:02:00,56.0,-99.9,-100.00,North,-999,-999.0,-999.0,-999,0.01,,,0.05,,2013-09-11 15:02:00,
2013-09-11 09:12:00,56.0,-99.9,-100.00,North,-999,-999.0,-999.0,-999,0.01,,,0.05,,2013-09-11 15:12:00,
2013-09-11 09:54:00,56.0,-99.9,-100.00,North,-999,-999.0,-999.0,-999,0.09,,,0.13,,2013-09-11 15:54:00,
2013-09-11 10:03:00,56.0,-99.9,-100.00,North,-999,-999.0,-999.0,-999,0.09,,,0.13,,2013-09-11 16:03:00,
2013-09-11 10:13:00,56.0,-99.9,-100.00,North,-999,-999.0,-999.0,-999,0.09,,,0.13,,2013-09-11 16:13:00,
2013-09-11 10:53:00,56.0,-99.9,-100.00,North,-999,-999.0,-999.0,-999,0.02,,,0.15,,2013-09-11 16:53:00,
2013-09-11 11:04:00,56.0,-99.9,-100.00,North,-999,-999.0,-999.0,-999,0.02,,,0.15,,2013-09-11 17:04:00,
2013-09-11 11:13:00,56.0,-99.9,-100.00,North,-999,-999.0,-999.0,-999,0.02,,,0.15,,2013-09-11 17:13:00,
2013-09-11 11:53:00,57.0,-99.9,-100.00,North,-999,-999.0,-999.0,-999,0.02,,,0.17,,2013-09-11 17:53:00,
2013-09-11 12:02:00,57.0,-99.9,-100.00,North,-999,-999.0,-999.0,-999,0.02,,,0.17,,2013-09-11 18:02:00,
2013-09-11 12:12:00,57.0,-99.9,-100.00,North,-999,-999.0,-999.0,-999,0.02,,,0.17,,2013-09-11 18:12:00,
2013-09-11 12:52:00,59.0,-99.9,-100.00,North,-999,-999.0,-999.0,-999,0.00,,,0.17,,2013-09-11 18:52:00,
2013-09-11 13:02:00,59.0,-99.9,-100.00,North,-999,-999.0,-999.0,-999,0.00,,,0.17,,2013-09-11 19:02:00,
2013-09-11 13:12:00,59.0,-99.9,-100.00,North,-999,-999.0,-999.0,-999,0.00,,,0.17,,2013-09-11 19:12:00,
2013-09-11 13:53:00,60.0,-99.9,-100.00,North,-999,-999.0,-999.0,-999,0.00,,,0.17,,2013-09-11 19:53:00,
2013-09-11 14:03:00,60.0,-99.9,-100.00,North,-999,-999.0,-999.0,-999,0.00,,,0.17,,2013-09-11 20:03:00,
2013-09-11 14:12:00,60.0,-99.9,-100.00,North,-999,-999.0,-999.0,-999,0.00,,,0.17,,2013-09-11 20:12:00,
2013-09-11 14:52:00,58.0,-99.9,-100.00,North,-999,-999.0,-999.0,-999,0.00,,,0.17,,2013-09-11 20:52:00,
2013-09-11 15:02:00,58.0,-99.9,-100.00,North,-999,-999.0,-999.0,-999,0.00,,,0.17,,2013-09-11 21:02:00,
2013-09-11 15:12:00,58.0,-99.9,-100.00,North,-999,-999.0,-999.0,-999,0.00,,,0.17,,2013-09-11 21:12:00,
2013-09-11 15:55:00,59.0,-99.9,-100.00,North,-999,-999.0,-999.0,-999,0.00,,,0.17,,2013-09-11 21:55:00,
2013-09-11 16:05:00,59.0,-99.9,-100.00,North,-999,-999.0,-999.0,-999,0.00,,,0.17,,2013-09-11 22:05:00,
2013-09-11 16:14:00,59.0,-99.9,-100.00,North,-999,-999.0,-999.0,-999,0.00,,,0.17,,2013-09-11 22:14:00,
2013-09-11 16:55:00,58.0,-99.9,-100.00,North,-999,-999.0,-999.0,-999,0.00,,,0.17,,2013-09-11 22:55:00,
2013-09-11 17:03:00,58.0,-99.9,-100.00,North,-999,-999.0,-999.0,-999,0.00,,,0.17,,2013-09-11 23:03:00,
2013-09-11 17:12:00,58.0,-99.9,-100.00,North,-999,-999.0,-999.0,-999,0.00,,,0.17,,2013-09-11 23:12:00,
2013-09-11 17:54:00,57.0,-99.9,-100.00,North,-999,-999.0,-999.0,-999,0.00,,,0.17,,2013-09-11 23:54:00,
2013-09-11 18:02:00,57.0,-99.9,-100.00,North,-999,-999.0,-999.0,-999,0.00,,,0.17,,2013-09-12 00:02:00,
2013-09-11 18:12:00,57.0,-99.9,-100.00,North,-999,-999.0,-999.0,-999,0.00,,,0.17,,2013-09-12 00:12:00,
2013-09-11 18:52:00,55.0,-99.9,-100.00,North,-999,-999.0,-999.0,-999,0.00,,,0.17,,2013-09-12 00:52:00,
2013-09-11 19:02:00,55.0,-99.9,-100.00,North,-999,-999.0,-999.0,-999,0.00,,,0.17,,2013-09-12 01:02:00,
2013-09-11 19:11:00,55.0,-99.9,-100.00,North,-999,-999.0,-999.0,-999,0.00,,,0.17,,2013-09-12 01:11:00,
2013-09-11 19:52:00,54.0,-99.9,-100.00,North,-999,-999.0,-999.0,-999,0.02,,,0.19,,2013-09-12 01:52:00,
2013-09-11 20:03:00,54.0,-99.9,-100.00,North,-999,-999.0,-999.0,-999,0.02,,,0.19,,2013-09-12 02:03:00,
2013-09-11 20:12:00,54.0,-99.9,-100.00,North,-999,-999.0,-999.0,-999,0.02,,,0.19,,2013-09-12 02:12:00,
2013-09-11 21:11:00,54.0,-99.9,-100.00,North,-999,-999.0,-999.0,-999,0.02,,,0.21,,2013-09-12 03:11:00,
2013-09-11 22:54:00,55.0,-99.9,-100.00,North,-999,-999.0,-999.0,-999,0.01,,,0.25,,2013-09-12 04:54:00,
2013-09-11 23:03:00,55.0,-99.9,-100.00,North,-999,-999.0,-999.0,-999,0.01,,,0.25,,2013-09-12 05:03:00,
2013-09-11 23:13:00,55.0,-99.9,-100.00,North,-999,-999.0,-999.0,-999,0.01,,,0.25,,2013-09-12 05:13:00,
2013-09-11 23:53:00,55.0,-99.9,-100.00,North,-999,-999.0,-999.0,-999,0.05,,,0.30,,2013-09-12 05:53:00,